Погода в Дубровке

Россия / Псковская область     57°32′41″N   29°45′40″E
темп.,
°C
ветер,
м/с
пор.,
м/с
влажн.,
%
обл.,
%
осадки,
мм/ч
давл.,
гПа
погр.,
м
14 апреля, ср
ср1400:00+7ссз4790100 3.3 1018343
03:00+5ссз5885100 6.1 1018353
06:00+3ссз5984100 2.4 1018430
09:00+3ссз51083100 3.8 1019482
12:00+4с4872100 0.1 1021557
15:00+4с3768100 0.1 1021518
18:00+5ссв2772100 0.0 1021332
21:00+4ссв277972 0.0 1023261
15 апреля, чт
чт1500:00+2ссв31087100 0.0 1023269
03:00+2ссв41291100 0.0 1024401
06:00+1ссв5148573 0.0 1024462
09:00+4ссв7137399 0.0 1024635
12:00+7св71163100 0.0 1024980
15:00+8св71166100 0.2 10241119
18:00+6св61277100 0.4 1024996
21:00+5св61384100 1.1 1025913
16 апреля, пт
пт1600:00+5св61386100 1.6 1024784
03:00+4св6138599 1.6 1024645
06:00+4св5128789 0.0 1024536
09:00+5св61277100 0.0 1025577
12:00+8всв697197 0.0 1025798
15:00+8всв51077100 0.4 1025789
18:00+10всв6117097 0.0 1025922
21:00+7всв51276100 0.0 1026463
17 апреля, сб
сб1700:00+6всв51275100 0.0 1027386
03:00+4всв4117599 0.0 1027351
06:00+3всв41182100 0.0 1028312
09:00+6всв51071100 0.0 1029440
12:00+10всв5860100 0.0 1029814
15:00+13в6752100 0.0 10281271
18:00+12всв5854100 0.0 1028960
21:00+7всв3106674 0.0 1029186
18 апреля, вс
вс1800:00+5всв397492 0.0 1030184
03:00+4всв388278 0.0 1030169
06:00+2в27866 0.0 1030144
09:00+7в48640 0.0 1030372
12:00+12в57455 0.0 10301128
15:00+14в56394 0.0 10291493
18:00+13в46470 0.0 10291267
21:00+8в34665 0.0 103072